This is the latest recevied weather packets stored in our database for station/object KF7PIZ. If no packets are shown the sender has not sent any weather packets the latest 10 day(s).
| Time | Temp. | Humidity | Pressure | Rain* | Wind** | Luminosity | Snow |
|---|---|---|---|---|---|---|---|
| 1777679578 | 26.11° C | 13% | 1016.4 hPa | 0 mm | - | 147 W/m² | - |
| 1777679273 | 26.11° C | 13% | 1016.1 hPa | 0 mm | - | 84 W/m² | - |
| 1777678971 | 26.11° C | 14% | 1016.2 hPa | 0 mm | - | 345 W/m² | - |
| 1777678669 | 25.56° C | 14% | 1016.1 hPa | 0 mm | - | 319 W/m² | - |
| 1777678366 | 26.67° C | 13% | 1016.2 hPa | 0 mm | - | 98 W/m² | - |
| 1777678061 | 25.56° C | 14% | 1016.2 hPa | 0 mm | - | 232 W/m² | - |
| 1777677759 | 25° C | 15% | 1016.3 hPa | 0 mm | - | 110 W/m² | - |
| 1777677457 | 25° C | 16% | 1016.2 hPa | 0 mm | - | 60 W/m² | - |
| 1777677155 | 25.56° C | 15% | 1016.4 hPa | 0 mm | - | 67 W/m² | - |
| 1777676853 | 25.56° C | 14% | 1016.4 hPa | 0 mm | - | 69 W/m² | - |
| 1777676551 | 25.56° C | 17% | 1016.5 hPa | 0 mm | - | 74 W/m² | - |
| 1777676249 | 25° C | 18% | 1016.5 hPa | 0 mm | - | 85 W/m² | - |
| 1777675946 | 25° C | 14% | 1016.6 hPa | 0 mm | - | 85 W/m² | - |
| 1777675641 | 25° C | 14% | 1016.8 hPa | 0 mm | - | 80 W/m² | - |
| 1777675339 | 23.89° C | 15% | 1017.2 hPa | 0 mm | - | 110 W/m² | - |
| 1777675035 | 24.44° C | 14% | 1017.4 hPa | 0 mm | - | 89 W/m² | - |
| 1777674732 | 25° C | 17% | 1017.3 hPa | 0 mm | - | 161 W/m² | - |
| 1777674429 | 23.89° C | 15% | 1017.3 hPa | 0 mm | - | 89 W/m² | - |
| 1777674126 | 25° C | 19% | 1017.5 hPa | 0 mm | - | 93 W/m² | - |
| 1777673822 | 25.56° C | 14% | 1017.7 hPa | 0 mm | - | 108 W/m² | - |
| 1777673519 | 25.56° C | 16% | 1017.7 hPa | 0 mm | - | 92 W/m² | - |
| 1777673217 | 25.56° C | 16% | 1017.9 hPa | 0 mm | - | 107 W/m² | - |
| 1777672914 | 25.56° C | 19% | 1017.9 hPa | 0 mm | - | 97 W/m² | - |
| 1777672611 | 26.11° C | 18% | 1017.9 hPa | 0 mm | - | 132 W/m² | - |
| 1777672306 | 26.11° C | 19% | 1018 hPa | 0 mm | - | 151 W/m² | - |
* Rain latest hour (hover to see other rain measurements)
** Current wind speed in m/s (hover to see current wind gust speed)